When you browse on this site, cookies collect data to enhance your experience and personalize the content and advertising you see.
Visit our Privacy Policy to learn more. By continuing to use the site, you agree to this use of cookies and data.
  • In Hungary
  • List of Countries
  • For 7 days
  • Water Temperature
  • Weather Map
  • News
  • Weather Widgets
  • user-avatar
    Login

    Hourly Weather Alfter

    Today, 9 April, Thursday

    Time Temperature Precipitation Wind Pressure Humidity
    00:00 +15°C° 0 mm 0 mps 758 mmHg 55%
    01:00 +14°C° 0 mm 0 mps 758 mmHg 56%
    02:00 +14°C° 0 mm 0 mps 758 mmHg 58%
    03:00 +13°C° 0 mm 0 mps 758 mmHg 60%
    04:00 +13°C° 0 mm 0 mps 758 mmHg 61%
    05:00 +14°C° 0 mm 0 mps 759 mmHg 63%
    06:00 +14°C° 0 mm 0 mps 759 mmHg 65%
    07:00 +16°C° 0 mm 1 mps 759 mmHg 61%
    08:00 +19°C° 0 mm 1 mps 759 mmHg 58%
    09:00 +20°C° 0 mm 1 mps 759 mmHg 54%
    10:00 +22°C° 0 mm 1 mps 759 mmHg 50%
    11:00 +23°C° 0 mm 1 mps 759 mmHg 46%
    12:00 +24°C° 0 mm 2 mps 759 mmHg 41%
    13:00 +24°C° 0 mm 2 mps 759 mmHg 42%
    14:00 +22°C° 0 mm 3 mps 759 mmHg 43%
    15:00 +22°C° 0 mm 3 mps 759 mmHg 43%
    16:00 +20°C° 0 mm 3 mps 759 mmHg 49%
    17:00 +19°C° 0 mm 3 mps 759 mmHg 55%
    18:00 +17°C° 0 mm 2 mps 759 mmHg 60%
    19:00 +16°C° 0 mm 2 mps 760 mmHg 64%
    20:00 +15°C° 0 mm 2 mps 760 mmHg 67%
    21:00 +14°C° 0 mm 2 mps 760 mmHg 71%
    22:00 +13°C° 0 mm 1 mps 761 mmHg 74%
    23:00 +12°C° 0 mm 1 mps 761 mmHg 76%

    Tomorrow, 10 April, Friday

    Time Temperature Precipitation Wind Pressure Humidity
    00:00 +12°C° 0 mm 1 mps 761 mmHg 79%
    01:00 +12°C° 0 mm 1 mps 761 mmHg 81%
    02:00 +11°C° 0 mm 1 mps 761 mmHg 83%
    03:00 +11°C° 0 mm 1 mps 761 mmHg 84%
    04:00 +11°C° 0 mm 1 mps 761 mmHg 83%
    05:00 +11°C° 0 mm 1 mps 761 mmHg 82%
    06:00 +12°C° 0 mm 1 mps 761 mmHg 81%
    07:00 +14°C° 0 mm 1 mps 761 mmHg 72%
    08:00 +16°C° 0 mm 1 mps 761 mmHg 64%
    09:00 +19°C° 0 mm 1 mps 761 mmHg 55%
    10:00 +20°C° 0 mm 1 mps 761 mmHg 50%
    11:00 +21°C° 0 mm 1 mps 761 mmHg 46%
    12:00 +22°C° 0 mm 1 mps 760 mmHg 41%
    13:00 +21°C° 0 mm 2 mps 760 mmHg 41%
    14:00 +21°C° 0 mm 2 mps 760 mmHg 41%
    15:00 +21°C° 0 mm 2 mps 759 mmHg 41%
    16:00 +19°C° 0 mm 2 mps 759 mmHg 48%
    17:00 +18°C° 0 mm 2 mps 759 mmHg 55%
    18:00 +16°C° 0 mm 2 mps 759 mmHg 62%
    19:00 +15°C° 0 mm 2 mps 759 mmHg 66%
    20:00 +14°C° 0 mm 2 mps 760 mmHg 69%
    21:00 +12°C° 0 mm 1 mps 760 mmHg 73%
    22:00 +12°C° 0 mm 1 mps 760 mmHg 75%
    23:00 +11°C° 0 mm 1 mps 760 mmHg 76%

    Day after tomorrow, 11 April, Saturday

    Time Temperature Precipitation Wind Pressure Humidity
    00:00 +11°C° 0 mm 1 mps 760 mmHg 78%
    01:00 +11°C° 0 mm 1 mps 760 mmHg 78%
    02:00 +10°C° 0 mm 1 mps 760 mmHg 79%
    03:00 +10°C° 0 mm 1 mps 760 mmHg 79%
    04:00 +10°C° 0 mm 1 mps 760 mmHg 78%
    05:00 +10°C° 0 mm 1 mps 760 mmHg 76%
    06:00 +11°C° 0 mm 1 mps 760 mmHg 74%
    07:00 +13°C° 0 mm 1 mps 760 mmHg 68%
    08:00 +15°C° 0 mm 1 mps 760 mmHg 61%
    09:00 +18°C° 0 mm 1 mps 759 mmHg 55%
    10:00 +20°C° 0 mm 1 mps 759 mmHg 50%
    11:00 +21°C° 0 mm 1 mps 759 mmHg 46%
    12:00 +23°C° 0 mm 1 mps 759 mmHg 42%
    13:00 +23°C° 0 mm 1 mps 758 mmHg 41%
    14:00 +23°C° 0 mm 1 mps 758 mmHg 41%
    15:00 +23°C° 0 mm 1 mps 757 mmHg 41%
    16:00 +22°C° 0 mm 1 mps 757 mmHg 46%
    17:00 +20°C° 0 mm 1 mps 757 mmHg 51%
    18:00 +19°C° 0 mm 1 mps 756 mmHg 56%
    19:00 +16°C° 0 mm 1 mps 756 mmHg 59%
    20:00 +15°C° 0 mm 1 mps 757 mmHg 61%
    21:00 +14°C° 0 mm 2 mps 757 mmHg 63%
    22:00 +14°C° 0 mm 2 mps 757 mmHg 64%
    23:00 +13°C° 0 mm 1 mps 757 mmHg 64%

    12 April, Sunday

    Time Temperature Precipitation Wind Pressure Humidity
    00:00 +13°C° 0 mm 1 mps 756 mmHg 65%
    01:00 +13°C° 0 mm 2 mps 756 mmHg 65%
    02:00 +12°C° 0 mm 2 mps 755 mmHg 66%
    03:00 +12°C° 0 mm 2 mps 755 mmHg 67%
    04:00 +12°C° 0 mm 2 mps 755 mmHg 67%
    05:00 +13°C° 0 mm 1 mps 755 mmHg 67%
    06:00 +13°C° 0 mm 1 mps 754 mmHg 67%
    07:00 +15°C° 0 mm 1 mps 754 mmHg 62%
    08:00 +16°C° 0 mm 1 mps 754 mmHg 58%
    09:00 +19°C° 0 mm 1 mps 753 mmHg 53%
    10:00 +21°C° 0 mm 1 mps 753 mmHg 49%
    11:00 +22°C° 0 mm 1 mps 752 mmHg 46%
    12:00 +23°C° 0 mm 2 mps 752 mmHg 42%
    13:00 +23°C° 0.1 mm 2 mps 751 mmHg 45%
    14:00 +21°C° 0.1 mm 2 mps 751 mmHg 48%
    15:00 +21°C° 0.1 mm 2 mps 750 mmHg 51%
    16:00 +20°C° 0.1 mm 2 mps 750 mmHg 56%
    17:00 +19°C° 0.1 mm 1 mps 749 mmHg 62%
    18:00 +18°C° 0.1 mm 1 mps 749 mmHg 68%
    19:00 +16°C° 0 mm 1 mps 749 mmHg 71%
    20:00 +15°C° 0 mm 1 mps 750 mmHg 73%
    21:00 +14°C° 0 mm 1 mps 750 mmHg 76%
    22:00 +14°C° 0 mm 1 mps 750 mmHg 76%
    23:00 +13°C° 0 mm 1 mps 750 mmHg 77%

    13 April, Monday

    Time Temperature Precipitation Wind Pressure Humidity
    00:00 +13°C° 0 mm 1 mps 750 mmHg 77%
    01:00 +12°C° 0 mm 1 mps 750 mmHg 78%
    02:00 +12°C° 0 mm 1 mps 750 mmHg 78%
    03:00 +12°C° 0 mm 1 mps 750 mmHg 79%
    04:00 +12°C° 0 mm 1 mps 750 mmHg 78%
    05:00 +12°C° 0 mm 1 mps 751 mmHg 78%
    06:00 +13°C° 0 mm 1 mps 751 mmHg 78%
    07:00 +14°C° 0 mm 1 mps 751 mmHg 72%
    08:00 +16°C° 0 mm 2 mps 752 mmHg 67%
    09:00 +17°C° 0 mm 2 mps 752 mmHg 62%
    10:00 +18°C° 0.4 mm 3 mps 752 mmHg 61%
    11:00 +19°C° 0.4 mm 3 mps 752 mmHg 60%
    12:00 +19°C° 0.4 mm 4 mps 753 mmHg 59%
    13:00 +19°C° 0.5 mm 4 mps 753 mmHg 61%
    14:00 +19°C° 0.5 mm 4 mps 753 mmHg 62%
    15:00 +18°C° 0.5 mm 4 mps 753 mmHg 64%
    16:00 +17°C° 0.1 mm 4 mps 753 mmHg 65%
    17:00 +14°C° 0.1 mm 4 mps 754 mmHg 67%
    18:00 +13°C° 0.1 mm 3 mps 754 mmHg 68%
    19:00 +12°C° 0 mm 3 mps 755 mmHg 71%
    20:00 +10°C° 0 mm 3 mps 756 mmHg 74%
    21:00 +9°C° 0 mm 3 mps 757 mmHg 77%
    22:00 +8°C° 0 mm 3 mps 758 mmHg 79%
    23:00 +7°C° 0 mm 3 mps 758 mmHg 80%

    14 April, Tuesday

    Time Temperature Precipitation Wind Pressure Humidity
    00:00 +5°C° 0 mm 3 mps 759 mmHg 82%
    01:00 +4°C° 0 mm 3 mps 759 mmHg 83%
    02:00 +5°C° 0 mm 2 mps 759 mmHg 84%
    03:00 +4°C° 0 mm 2 mps 759 mmHg 84%
    04:00 +3°C° 0 mm 3 mps 760 mmHg 82%
    05:00 +3°C° 0 mm 3 mps 760 mmHg 80%
    06:00 +3°C° 0 mm 3 mps 760 mmHg 78%
    07:00 +5°C° 0 mm 3 mps 760 mmHg 69%
    08:00 +6°C° 0 mm 4 mps 760 mmHg 60%
    09:00 +8°C° 0 mm 4 mps 760 mmHg 52%
    10:00 +10°C° 0 mm 4 mps 759 mmHg 46%
    11:00 +12°C° 0 mm 4 mps 759 mmHg 41%
    12:00 +13°C° 0 mm 4 mps 759 mmHg 36%
    13:00 +14°C° 0 mm 4 mps 758 mmHg 35%
    14:00 +14°C° 0 mm 4 mps 758 mmHg 35%
    15:00 +15°C° 0 mm 4 mps 757 mmHg 34%
    16:00 +13°C° 0 mm 3 mps 757 mmHg 39%
    17:00 +12°C° 0 mm 3 mps 757 mmHg 45%
    18:00 +11°C° 0 mm 3 mps 757 mmHg 50%
    19:00 +9°C° 0 mm 3 mps 757 mmHg 53%
    20:00 +8°C° 0 mm 3 mps 757 mmHg 56%
    21:00 +7°C° 0 mm 3 mps 757 mmHg 59%
    22:00 +5°C° 0 mm 3 mps 757 mmHg 60%
    23:00 +5°C° 0 mm 3 mps 757 mmHg 62%
    Show more